Location: Grantsboro
(35.1404°N, 76.8424°W)
Time: 16:28:16
(UTC+00:00)

FALCON 9 DEB - Pass Details

Date: 18 January 2020
Orbit: 168 x 177 km, 53.0° (Epoch: 20 January)

Event Time Altitude Azimuth Distance (km) Brightness Sun altitude
Exits shadow 10:53:14 27° 145° (SE) 420 3.6 -16.5°
Maximum altitude 10:53:25 27° 132° (SE) 412 3.7 -16.5°
Drops below altitude 10° 10:55:06 10° 68° (ENE) 849 5.4 -16.1°
Sets 10:56:58 0° 55° (NE) 1,622 6.7 -15.7°
